Regional Weather Roundup
Issued by NWS State College, PA

Home | Current Version | Previous Version | Text Only | Print | Product List | Glossary On
Versions: 1 2 3 4 5 6 7 8 9 10 11 12 13 14 15 16 17 18 19 20 21 22 23 24 25 26 27 28 29 30 31 32 33 34 35 36 37 38 39 40 41 42 43 44 45 46 47 48 49 50
000
ASUS41 KCTP 012310
RWRCTP

REGIONAL WEATHER ROUNDUP
NATIONAL WEATHER SERVICE STATE COLLEGE PA
700 PM EDT TUE SEP 01 2015

Note: "fair" indicates few or no clouds below 12,000 feet with no
significant weather and/or obstructions to visibility.

* = STATION THAT DOES NOT REPORT PRECIPITATION /E.G. RAIN...SNOW...ETC/
    THUNDER OR FOG.

PAZ002>004-007>009-013>016-020>023-029>032-020000-
WESTERN PENNSYLVANIA

CITY           SKY/WX    TMP DP  RH WIND       PRES   REMARKS
ERIE           CLEAR     81  64  56 CALM      30.06F
MEADVILLE      CLEAR     80  65  59 N5        30.10R
FRANKLIN*      CLEAR     79  64  61 CALM      30.12R
NEW CASTLE     FAIR      82  71  69 CALM      30.08R
BEAVER COUNTY  CLEAR     84  64  51 CALM      30.08S
BUTLER*        PTCLDY    82  66  57 CALM      30.10R
PITTSBURGH INT MOCLDY    85  65  51 SW5       30.07S
PITTSBURGH     PTCLDY    84  59  42 W6        30.07S
INDIANA*       CLEAR     84  64  51 CALM      30.11S
LATROBE        CLEAR     84  66  54 CALM      30.09S
WASHINGTON CO* PTCLDY    82  64  54 NW3       30.09S
$$

PAZ004>006-010>012-017>019-024>028-033>037-041-042-045-046-049>053-020000-
CENTRAL PENNSYLVANIA

CITY           SKY/WX    TMP DP  RH WIND       PRES   REMARKS
BRADFORD       CLEAR     77  62  59 NW6       30.12S
DUBOIS         CLEAR     81  63  54 NW6       30.10S
CLEARFIELD     CLEAR     81  63  54 NW5       30.10R
JOHNSTOWN      CLEAR     81  61  50 NW6       30.13S
ALTOONA        CLEAR     83  63  50 N5        30.09S
STATE COLLEGE  CLEAR     82  64  54 CALM      30.07S
WILLIAMSPORT   CLEAR     81  68  64 CALM      30.01F
SELINSGROVE    CLEAR     77  71  82 CALM      30.03S
FT INDIANTOWN  CLEAR     80  69  69 N2        30.03S
CAPITAL CITY   CLEAR     87  62  43 N3        30.02S
HARRISBURG     PTCLDY    86  62  44 N5        30.01S
YORK           CLEAR     80  68  66 CALM      30.03S
$$

PAZ038>040-043-044-047-048-054-055-060>062-067>071-020000-
EASTERN PENNSYLVANIA

CITY           SKY/WX    TMP DP  RH WIND       PRES   REMARKS
SCRANTON       CLEAR     81  65  58 CALM      30.04S
MOUNT POCONO   CLEAR     74  65  73 SE5       30.10S
ALLENTOWN      CLEAR     85  65  51 SE6       30.02S
QUAKERTOWN*    CLEAR     82  66  57 NE3       30.04S
READING        PTCLDY    84  65  52 W5        30.01S
LANCASTER      CLEAR     83  64  52 NE5       30.03R
COATESVILLE    CLEAR     82  63  51 NW6       30.05R
POTTSTOWN      CLEAR     84  64  50 NE3       30.03S
BLUE BELL      CLEAR     82  68  61 CALM      30.01S
DOYLESTOWN     CLEAR     80  63  55 CALM      30.02S
WILLOW GROVE   NOT AVBL
NORTH PHILA    MOCLDY    88  59  37 NE7       30.02R
PHILADELPHIA   PTCLDY    86  70  58 SE9       30.00R
$$


USA.gov is the U.S. government's official web portal to all federal, state and local government web resources and services.